Regional Weather Roundup
Issued by NWS

Home | Current Version | Previous Version | Graphics & Text | Print | Product List | Glossary On
Versions: 1 2 3 4 5 6 7 8 9 10 11 12 13 14 15 16 17 18 19 20 21 22 23 24 25 26 27 28 29 30 31 32 33 34 35 36 37 38 39 40 41 42 43 44 45 46 47 48 49 50
037
ASUS43 KBIS 191410
RWRND

NORTH DAKOTA REGIONAL WEATHER ROUNDUP
NATIONAL WEATHER SERVICE BISMARCK ND
900 AM CDT THU OCT 19 2017

NOTE: "FAIR" INDICATES FEW OR NO CLOUDS BELOW 12,000 FEET WITH NO
SIGNIFICANT WEATHER AND/OR OBSTRUCTIONS TO VISIBILITY.


NDZ001>003-009>011-017-191500-
NORTHWEST NORTH DAKOTA

CITY           SKY/WX    TMP DP  RH WIND       PRES   REMARKS
WILLISTON      CLOUDY    37  30  75 S5        29.71S
MINOT          CLOUDY    50  29  44 S16       29.70F
MINOT AFB      CLOUDY    47  30  51 S6        29.69S
$$

NDZ018>021-031>035-040>046-191500-
SOUTHWEST NORTH DAKOTA

CITY           SKY/WX    TMP DP  RH WIND       PRES   REMARKS
BISMARCK       PTCLDY    42  34  73 SE8       29.81R
DICKINSON      CLOUDY    46  30  53 S7        29.76S
GARRISON         N/A     44  34  67 S8        29.75F
HETTINGER ARPT CLOUDY    35  28  75 W3        29.82S
$$

NDZ004>008-012>016-024-026-027-054-191500-
NORTHEAST NORTH DAKOTA

CITY           SKY/WX    TMP DP  RH WIND       PRES   REMARKS
GRAND FORKS    PTCLDY    39  28  64 SE10      29.85S
GRND FRKS AFB  CLOUDY    39  27  61 S8        29.84F
DEVILS LAKE    CLOUDY    43  33  68 SE10      29.79F
$$

NDZ022-023-025-028>030-036>039-047>053-191500-
SOUTHEAST NORTH DAKOTA

CITY           SKY/WX    TMP DP  RH WIND       PRES   REMARKS
FARGO          SUNNY     45  31  58 SE13      29.88F
JAMESTOWN      CLOUDY    45  31  58 S10       29.82F
$$





USA.gov is the U.S. government's official web portal to all federal, state and local government web resources and services.